Tiempo cada hora Bartoszewice

Hoy, 7 Marzo, Domingo

Tiempo Temperatura Precipitaciones Viento Presión Humedad
00:00 -2°C° 0 mm 5 mps 758 mmHg 82%
01:00 -2°C° 0 mm 5 mps 758 mmHg 82%
02:00 -2°C° 0 mm 5 mps 758 mmHg 83%
03:00 -2°C° 0 mm 5 mps 757 mmHg 84%
04:00 -3°C° 0 mm 6 mps 757 mmHg 86%
05:00 -3°C° 0 mm 6 mps 756 mmHg 85%
06:00 -2°C° 0 mm 6 mps 756 mmHg 85%
07:00 -2°C° 0 mm 6 mps 756 mmHg 84%
08:00 -2°C° 0 mm 7 mps 756 mmHg 80%
09:00 -1°C° 0 mm 7 mps 755 mmHg 77%
10:00 -1°C° 0 mm 7 mps 755 mmHg 73%
11:00 -1°C° 0 mm 7 mps 755 mmHg 72%
12:00 -1°C° 0 mm 7 mps 754 mmHg 71%
13:00 -1°C° 0 mm 7 mps 754 mmHg 70%
14:00 -1°C° 0 mm 7 mps 754 mmHg 70%
15:00 -1°C° 0 mm 7 mps 753 mmHg 70%
16:00 -1°C° 0 mm 7 mps 753 mmHg 70%
17:00 -2°C° 0 mm 6 mps 752 mmHg 72%
18:00 -1°C° 0 mm 5 mps 752 mmHg 75%
19:00 -2°C° 0 mm 4 mps 752 mmHg 77%
20:00 -2°C° 0 mm 5 mps 752 mmHg 79%
21:00 -2°C° 0 mm 5 mps 752 mmHg 81%
22:00 -2°C° 0 mm 5 mps 752 mmHg 83%
23:00 -2°C° 0.1 mm 5 mps 752 mmHg 87%

Mañana, 8 Marzo, Lunes

Tiempo Temperatura Precipitaciones Viento Presión Humedad
00:00 -2°C° 0.1 mm 5 mps 752 mmHg 91%
01:00 -2°C° 0.1 mm 5 mps 753 mmHg 95%
02:00 -3°C° 0.1 mm 4 mps 752 mmHg 93%
03:00 -2°C° 0.1 mm 3 mps 752 mmHg 91%
04:00 -3°C° 0.1 mm 2 mps 752 mmHg 89%
05:00 -3°C° 0 mm 2 mps 753 mmHg 88%
06:00 -3°C° 0 mm 2 mps 753 mmHg 86%
07:00 -4°C° 0 mm 2 mps 754 mmHg 85%
08:00 -2°C° 0 mm 2 mps 754 mmHg 73%
09:00 -1°C° 0 mm 2 mps 754 mmHg 62%
10:00 0°C° 0 mm 3 mps 755 mmHg 51%
11:00 +1°C° 0 mm 3 mps 755 mmHg 48%
12:00 +3°C° 0 mm 2 mps 755 mmHg 45%
13:00 +3°C° 0 mm 2 mps 755 mmHg 42%
14:00 +3°C° 0 mm 2 mps 755 mmHg 44%
15:00 +3°C° 0 mm 2 mps 755 mmHg 46%
16:00 +3°C° 0 mm 2 mps 755 mmHg 48%
17:00 +2°C° 0 mm 2 mps 755 mmHg 52%
18:00 +2°C° 0 mm 1 mps 755 mmHg 57%
19:00 +1°C° 0 mm 1 mps 755 mmHg 62%
20:00 0°C° 0 mm 1 mps 755 mmHg 63%
21:00 0°C° 0 mm 1 mps 756 mmHg 64%
22:00 0°C° 0 mm 1 mps 756 mmHg 65%
23:00 0°C° 0 mm 1 mps 756 mmHg 66%

Pasado mañana, 9 Marzo, Martes

Tiempo Temperatura Precipitaciones Viento Presión Humedad
00:00 0°C° 0 mm 1 mps 756 mmHg 66%
01:00 0°C° 0 mm 1 mps 756 mmHg 67%
02:00 0°C° 0 mm 1 mps 755 mmHg 68%
03:00 -1°C° 0 mm 1 mps 755 mmHg 68%
04:00 -1°C° 0 mm 1 mps 755 mmHg 69%
05:00 -1°C° 0 mm 1 mps 755 mmHg 69%
06:00 0°C° 0 mm 1 mps 755 mmHg 68%
07:00 0°C° 0 mm 1 mps 755 mmHg 68%
08:00 +1°C° 0 mm 1 mps 755 mmHg 64%
09:00 +1°C° 0 mm 1 mps 755 mmHg 59%
10:00 +2°C° 0 mm 1 mps 755 mmHg 55%
11:00 +3°C° 0 mm 1 mps 755 mmHg 50%
12:00 +3°C° 0 mm 1 mps 755 mmHg 46%
13:00 +3°C° 0 mm 0 mps 755 mmHg 42%
14:00 +4°C° 0 mm 1 mps 755 mmHg 41%
15:00 +4°C° 0 mm 1 mps 755 mmHg 40%
16:00 +4°C° 0 mm 1 mps 755 mmHg 39%
17:00 +3°C° 0 mm 1 mps 755 mmHg 43%
18:00 +1°C° 0 mm 1 mps 755 mmHg 48%
19:00 0°C° 0 mm 1 mps 756 mmHg 53%
20:00 0°C° 0 mm 1 mps 756 mmHg 55%
21:00 -3°C° 0 mm 2 mps 756 mmHg 57%
22:00 -3°C° 0 mm 2 mps 756 mmHg 59%
23:00 -3°C° 0 mm 2 mps 756 mmHg 60%

10 Marzo, Miércoles

Tiempo Temperatura Precipitaciones Viento Presión Humedad
00:00 -3°C° 0 mm 2 mps 756 mmHg 60%
01:00 -3°C° 0 mm 2 mps 756 mmHg 60%
02:00 -3°C° 0 mm 2 mps 756 mmHg 60%
03:00 -3°C° 0 mm 2 mps 756 mmHg 59%
04:00 -3°C° 0 mm 2 mps 756 mmHg 58%
05:00 -3°C° 0 mm 2 mps 755 mmHg 58%
06:00 -2°C° 0 mm 2 mps 755 mmHg 57%
07:00 -2°C° 0 mm 2 mps 755 mmHg 56%
08:00 0°C° 0 mm 3 mps 755 mmHg 53%
09:00 +1°C° 0 mm 3 mps 755 mmHg 50%
10:00 +3°C° 0 mm 3 mps 755 mmHg 47%
11:00 +4°C° 0 mm 3 mps 755 mmHg 48%
12:00 +5°C° 0 mm 4 mps 755 mmHg 50%
13:00 +5°C° 0 mm 4 mps 754 mmHg 51%
14:00 +5°C° 0 mm 3 mps 754 mmHg 55%
15:00 +5°C° 0 mm 3 mps 753 mmHg 58%
16:00 +6°C° 0 mm 2 mps 752 mmHg 62%
17:00 +4°C° 0 mm 3 mps 752 mmHg 68%
18:00 +3°C° 0 mm 3 mps 752 mmHg 73%
19:00 0°C° 0 mm 4 mps 751 mmHg 79%
20:00 +1°C° 0 mm 4 mps 751 mmHg 78%
21:00 +1°C° 0 mm 5 mps 750 mmHg 77%
22:00 +1°C° 0 mm 5 mps 750 mmHg 76%
23:00 +1°C° 0 mm 5 mps 749 mmHg 75%

11 Marzo, Jueves

Tiempo Temperatura Precipitaciones Viento Presión Humedad
00:00 +2°C° 0 mm 5 mps 748 mmHg 73%
01:00 +2°C° 0 mm 5 mps 748 mmHg 71%
02:00 +2°C° 0 mm 5 mps 747 mmHg 72%
03:00 +2°C° 0 mm 6 mps 746 mmHg 73%
04:00 +3°C° 0 mm 6 mps 745 mmHg 73%
05:00 +3°C° 0.4 mm 6 mps 744 mmHg 79%
06:00 +3°C° 0.4 mm 6 mps 744 mmHg 85%
07:00 +3°C° 0.4 mm 5 mps 743 mmHg 90%
08:00 +4°C° 0.4 mm 6 mps 742 mmHg 90%
09:00 +4°C° 0.4 mm 6 mps 742 mmHg 89%
10:00 +5°C° 0.4 mm 6 mps 742 mmHg 88%
11:00 +7°C° 0.1 mm 6 mps 741 mmHg 82%
12:00 +8°C° 0.1 mm 7 mps 741 mmHg 76%
13:00 +9°C° 0.1 mm 7 mps 740 mmHg 70%
14:00 +10°C° 0 mm 7 mps 740 mmHg 69%
15:00 +10°C° 0 mm 6 mps 739 mmHg 69%
16:00 +10°C° 0 mm 6 mps 739 mmHg 68%
17:00 +10°C° 0.1 mm 7 mps 739 mmHg 69%
18:00 +10°C° 0.1 mm 7 mps 738 mmHg 70%
19:00 +9°C° 0.1 mm 8 mps 738 mmHg 71%
20:00 +9°C° 0.5 mm 8 mps 738 mmHg 70%
21:00 +7°C° 0.5 mm 8 mps 739 mmHg 70%
22:00 +6°C° 0.5 mm 7 mps 739 mmHg 69%
23:00 +6°C° 0 mm 8 mps 739 mmHg 69%

12 Marzo, Viernes

Tiempo Temperatura Precipitaciones Viento Presión Humedad
00:00 +5°C° 0 mm 8 mps 740 mmHg 70%
01:00 +4°C° 0 mm 8 mps 740 mmHg 70%
02:00 +4°C° 0 mm 8 mps 740 mmHg 71%
03:00 +4°C° 0 mm 8 mps 740 mmHg 72%
04:00 +2°C° 0 mm 8 mps 741 mmHg 73%
05:00 +2°C° 0 mm 8 mps 741 mmHg 73%
06:00 +2°C° 0 mm 8 mps 741 mmHg 73%
07:00 +2°C° 0 mm 8 mps 741 mmHg 73%
08:00 +3°C° 0.1 mm 9 mps 742 mmHg 69%
09:00 +4°C° 0.1 mm 11 mps 742 mmHg 65%
10:00 +4°C° 0.1 mm 12 mps 742 mmHg 62%
11:00 +5°C° 0.1 mm 12 mps 743 mmHg 58%
12:00 +5°C° 0.1 mm 12 mps 743 mmHg 55%
13:00 +7°C° 0.1 mm 12 mps 743 mmHg 52%
14:00 +7°C° 0 mm 11 mps 743 mmHg 51%
15:00 +6°C° 0 mm 10 mps 744 mmHg 51%
16:00 +6°C° 0 mm 10 mps 744 mmHg 51%
17:00 +5°C° 0 mm 8 mps 744 mmHg 55%
18:00 +4°C° 0 mm 6 mps 745 mmHg 60%
19:00 +3°C° 0 mm 5 mps 745 mmHg 65%
20:00 +2°C° 0 mm 5 mps 745 mmHg 67%
21:00 +3°C° 0 mm 4 mps 746 mmHg 69%
22:00 +3°C° 0 mm 4 mps 746 mmHg 70%
23:00 +3°C° 0 mm 4 mps 746 mmHg 73%
Mostrar más

Necesitamos Su Consentimiento

Meteoprog y nuestros Proveedores de Servicios pueden almacenar y acceder a sus datos personales como cookies, identificadores de dispositivo u otras tecnologías similares de su dispositivo y procesar dichos datos para personalizar contenido y anuncios, además de ofrecer funciones de redes sociales y analizar el tráfico.

  • Almacenar y/o acceder a información en su dispositivo

    Se puede almacenar o acceder a cookies, identificadores de dispositivo u otra información de su dispositivo para los fines anteriormente indicados.

  • Anuncios y contenido personalizados, medición de anuncios y contenido, percepciones del público, y desarrollo de productos

    Los anuncios y el contenido pueden personalizarse en base a su perfil. Se pueden añadir más datos para personalizar mejor los anuncios y contenidos. Se puede medir el rendimiento de los anuncios y contenidos. Se puede obtener la percepción sobre el público que ha visto los anuncios y contenidos. Dichos datos pueden usarse para desarrollar o mejorar la experiencia del usuario, sistemas y software.

Al hacer clic en ‘Estoy De Acuerdo’ usted permitirá el uso de las cookies, identificadores de dispositivo, balizas web u otras tecnologías similares indicadas. Su configuración puede cambiarse desde el navegador de su dispositivo.

Para ciertos fines, los intereses legítimos pueden ser considerados por encima del consentimiento. Puede leer más sobre ello en nuestra Política de Privacidad y Cookies.